Time,TemperatureF,DewpointF,PressureIn,WindDirection,WindDirectionDegrees,WindSpeedMPH,WindSpeedGustMPH,Humidity,HourlyPrecipIn,Conditions,Clouds,dailyrainin,SoftwareType,DateUTC
2013-01-06 00:00:00,32.7,29.3,30.05,SE,132,2.0,6.0,87,0.00,,,0.01,VWS V14.00,2013-01-06 05:00:00,
2013-01-06 00:02:00,32.8,29.4,30.05,WSW,252,1.0,6.0,87,0.00,,,0.01,VWS V14.00,2013-01-06 05:02:00,
2013-01-06 00:07:00,32.8,29.4,30.05,WSW,247,3.0,7.0,87,0.00,,,0.00,VWS V14.00,2013-01-06 05:07:00,
2013-01-06 00:08:00,32.8,29.4,30.05,SW,217,1.0,7.0,87,0.00,,,0.00,VWS V14.00,2013-01-06 05:08:00,
2013-01-06 00:13:00,32.8,29.4,30.05,WSW,249,1.0,7.0,87,0.00,,,0.00,VWS V14.00,2013-01-06 05:13:00,
2013-01-06 00:18:00,32.8,29.4,30.04,SSW,210,0.0,7.0,87,0.00,,,0.00,VWS V14.00,2013-01-06 05:18:00,
2013-01-06 00:23:00,32.8,29.4,30.04,SW,222,1.0,7.0,87,0.00,,,0.00,VWS V14.00,2013-01-06 05:23:00,
2013-01-06 00:28:00,32.9,29.7,30.04,WSW,248,1.0,7.0,88,0.00,,,0.00,VWS V14.00,2013-01-06 05:28:00,
2013-01-06 00:33:00,32.8,29.6,30.04,SSW,208,0.0,7.0,88,0.00,,,0.00,VWS V14.00,2013-01-06 05:33:00,
2013-01-06 00:38:00,32.8,29.6,30.03,WSW,248,4.0,4.0,88,0.00,,,0.00,VWS V14.00,2013-01-06 05:38:00,
2013-01-06 00:43:00,32.8,29.6,30.03,SW,223,1.0,5.0,88,0.00,,,0.00,VWS V14.00,2013-01-06 05:43:00,
2013-01-06 00:48:00,32.8,29.9,30.03,SSW,193,0.0,6.0,89,0.00,,,0.00,VWS V14.00,2013-01-06 05:48:00,
2013-01-06 00:53:00,32.8,29.9,30.02,SW,232,0.0,6.0,89,0.00,,,0.00,VWS V14.00,2013-01-06 05:53:00,
2013-01-06 00:58:00,32.9,30.0,30.02,West,265,0.0,6.0,89,0.00,,,0.00,VWS V14.00,2013-01-06 05:58:00,
2013-01-06 01:03:00,33.0,30.4,30.02,West,281,1.0,7.0,90,0.00,,,0.00,VWS V14.00,2013-01-06 06:03:00,
2013-01-06 01:08:00,33.1,30.5,30.02,WSW,245,1.0,2.0,90,0.00,,,0.00,VWS V14.00,2013-01-06 06:08:00,
2013-01-06 01:13:00,33.1,30.5,30.02,NW,316,1.0,3.0,90,0.00,,,0.00,VWS V14.00,2013-01-06 06:13:00,
2013-01-06 01:18:00,33.2,30.6,30.02,SW,233,2.0,4.0,90,0.00,,,0.00,VWS V14.00,2013-01-06 06:18:00,
2013-01-06 01:23:00,33.3,30.7,30.02,SSW,211,1.0,7.0,90,0.00,,,0.00,VWS V14.00,2013-01-06 06:23:00,
2013-01-06 01:28:00,33.4,30.8,30.02,NW,306,0.0,7.0,90,0.00,,,0.00,VWS V14.00,2013-01-06 06:28:00,
2013-01-06 01:33:00,33.4,30.8,30.01,SW,219,3.0,7.0,90,0.00,,,0.00,VWS V14.00,2013-01-06 06:33:00,
2013-01-06 01:38:00,33.4,30.8,30.01,WSW,250,0.0,4.0,90,0.00,,,0.00,VWS V14.00,2013-01-06 06:38:00,
2013-01-06 01:43:00,33.4,30.8,30.00,SW,217,1.0,9.0,90,0.00,,,0.00,VWS V14.00,2013-01-06 06:43:00,
2013-01-06 01:48:00,33.5,30.9,30.00,WSW,257,3.0,9.0,90,0.00,,,0.00,VWS V14.00,2013-01-06 06:48:00,
2013-01-06 01:53:00,33.5,30.9,30.00,SSW,208,1.0,9.0,90,0.00,,,0.00,VWS V14.00,2013-01-06 06:53:00,
2013-01-06 01:58:00,33.5,30.9,30.00,SW,226,2.0,9.0,90,0.00,,,0.00,VWS V14.00,2013-01-06 06:58:00,
2013-01-06 02:03:00,33.5,30.6,30.00,SW,215,1.0,9.0,89,0.00,,,0.00,VWS V14.00,2013-01-06 07:03:00,
2013-01-06 02:08:00,33.6,30.7,30.00,SW,226,0.0,5.0,89,0.00,,,0.00,VWS V14.00,2013-01-06 07:08:00,
2013-01-06 02:13:00,33.6,30.7,30.00,West,281,0.0,8.0,89,0.00,,,0.00,VWS V14.00,2013-01-06 07:13:00,
2013-01-06 02:18:00,33.6,30.7,30.00,WSW,240,0.0,8.0,89,0.00,,,0.00,VWS V14.00,2013-01-06 07:18:00,
2013-01-06 02:23:00,33.5,30.6,30.00,West,270,1.0,8.0,89,0.00,,,0.00,VWS V14.00,2013-01-06 07:23:00,
2013-01-06 02:28:00,33.5,30.6,30.00,South,170,4.0,8.0,89,0.00,,,0.00,VWS V14.00,2013-01-06 07:28:00,
2013-01-06 02:33:00,33.5,30.6,30.00,WSW,238,0.0,8.0,89,0.00,,,0.00,VWS V14.00,2013-01-06 07:33:00,
2013-01-06 02:38:00,33.4,30.5,30.00,SW,222,2.0,5.0,89,0.00,,,0.00,VWS V14.00,2013-01-06 07:38:00,
2013-01-06 02:43:00,33.5,30.6,30.00,West,277,5.0,5.0,89,0.00,,,0.00,VWS V14.00,2013-01-06 07:43:00,
2013-01-06 02:48:00,33.5,30.6,30.00,SSW,205,1.0,7.0,89,0.00,,,0.00,VWS V14.00,2013-01-06 07:48:00,
2013-01-06 02:53:00,33.4,30.5,30.00,SE,131,0.0,7.0,89,0.00,,,0.00,VWS V14.00,2013-01-06 07:53:00,
2013-01-06 02:58:00,33.4,30.5,30.00,South,180,1.0,7.0,89,0.00,,,0.00,VWS V14.00,2013-01-06 07:58:00,
2013-01-06 03:03:00,33.5,30.6,29.99,SSW,211,3.0,7.0,89,0.00,,,0.00,VWS V14.00,2013-01-06 08:03:00,
2013-01-06 03:08:00,33.4,30.5,29.99,SW,225,1.0,5.0,89,0.00,,,0.00,VWS V14.00,2013-01-06 08:08:00,
2013-01-06 03:13:00,33.4,30.5,29.99,SSW,209,2.0,6.0,89,0.00,,,0.00,VWS V14.00,2013-01-06 08:13:00,
2013-01-06 03:18:00,33.4,30.5,29.99,WSW,238,3.0,7.0,89,0.00,,,0.00,VWS V14.00,2013-01-06 08:18:00,
2013-01-06 03:23:00,33.4,30.5,29.99,West,280,1.0,7.0,89,0.00,,,0.00,VWS V14.00,2013-01-06 08:23:00,
2013-01-06 03:28:00,33.5,30.6,29.99,WNW,283,0.0,7.0,89,0.00,,,0.00,VWS V14.00,2013-01-06 08:28:00,
2013-01-06 03:33:00,33.5,30.6,29.99,SW,233,1.0,7.0,89,0.00,,,0.00,VWS V14.00,2013-01-06 08:33:00,
2013-01-06 03:38:00,33.5,30.6,29.99,WSW,249,0.0,1.0,89,0.00,,,0.00,VWS V14.00,2013-01-06 08:38:00,
2013-01-06 03:43:00,33.5,30.6,29.99,South,187,1.0,3.0,89,0.00,,,0.00,VWS V14.00,2013-01-06 08:43:00,
2013-01-06 03:48:00,33.5,30.6,29.99,West,263,1.0,3.0,89,0.00,,,0.00,VWS V14.00,2013-01-06 08:48:00,
2013-01-06 03:53:00,33.5,30.6,29.98,SSW,211,0.0,3.0,89,0.00,,,0.00,VWS V14.00,2013-01-06 08:53:00,
2013-01-06 03:58:00,33.5,30.6,29.98,SSE,150,0.0,3.0,89,0.00,,,0.00,VWS V14.00,2013-01-06 08:58:00,
2013-01-06 04:03:00,33.5,30.6,29.98,ENE,76,1.0,3.0,89,0.00,,,0.00,VWS V14.00,2013-01-06 09:03:00,
2013-01-06 04:08:00,33.6,30.7,29.98,SW,225,0.0,4.0,89,0.00,,,0.00,VWS V14.00,2013-01-06 09:08:00,
2013-01-06 04:13:00,33.6,30.7,29.98,South,174,2.0,4.0,89,0.00,,,0.00,VWS V14.00,2013-01-06 09:13:00,
2013-01-06 04:18:00,33.7,30.8,29.98,SW,221,0.0,4.0,89,0.00,,,0.00,VWS V14.00,2013-01-06 09:18:00,
2013-01-06 04:23:00,33.7,30.8,29.97,SW,221,1.0,4.0,89,0.00,,,0.00,VWS V14.00,2013-01-06 09:23:00,
2013-01-06 04:28:00,33.7,30.8,29.97,West,266,1.0,4.0,89,0.00,,,0.00,VWS V14.00,2013-01-06 09:28:00,
2013-01-06 04:33:00,33.7,30.8,29.97,South,184,0.0,4.0,89,0.00,,,0.00,VWS V14.00,2013-01-06 09:33:00,
2013-01-06 04:38:00,33.7,30.8,29.97,SSE,159,1.0,2.0,89,0.00,,,0.00,VWS V14.00,2013-01-06 09:38:00,
2013-01-06 04:43:00,33.8,30.9,29.96,SW,221,4.0,5.0,89,0.00,,,0.00,VWS V14.00,2013-01-06 09:43:00,
2013-01-06 04:48:00,33.8,30.9,29.96,SW,236,0.0,5.0,89,0.00,,,0.00,VWS V14.00,2013-01-06 09:48:00,
2013-01-06 04:53:00,33.9,31.0,29.97,WSW,252,0.0,5.0,89,0.00,,,0.00,VWS V14.00,2013-01-06 09:53:00,
2013-01-06 04:58:00,33.9,31.0,29.96,WSW,243,0.0,5.0,89,0.00,,,0.00,VWS V14.00,2013-01-06 09:58:00,
2013-01-06 05:03:00,33.9,31.0,29.96,NE,44,0.0,5.0,89,0.00,,,0.00,VWS V14.00,2013-01-06 10:03:00,
2013-01-06 05:08:00,33.9,31.0,29.96,SW,214,1.0,2.0,89,0.00,,,0.00,VWS V14.00,2013-01-06 10:08:00,
2013-01-06 05:13:00,34.0,31.1,29.96,SSW,211,0.0,2.0,89,0.00,,,0.00,VWS V14.00,2013-01-06 10:13:00,
2013-01-06 05:18:00,34.0,31.1,29.96,West,262,0.0,3.0,89,0.00,,,0.00,VWS V14.00,2013-01-06 10:18:00,
2013-01-06 05:23:00,34.0,31.1,29.95,West,281,1.0,3.0,89,0.00,,,0.00,VWS V14.00,2013-01-06 10:23:00,
2013-01-06 05:28:00,34.1,31.2,29.95,WNW,292,0.0,3.0,89,0.00,,,0.00,VWS V14.00,2013-01-06 10:28:00,
2013-01-06 05:33:00,34.1,31.2,29.95,WNW,291,2.0,3.0,89,0.00,,,0.00,VWS V14.00,2013-01-06 10:33:00,
2013-01-06 05:38:00,34.1,31.2,29.95,SSW,193,1.0,1.0,89,0.00,,,0.00,VWS V14.00,2013-01-06 10:38:00,
2013-01-06 05:43:00,34.1,31.2,29.95,WSW,245,0.0,4.0,89,0.00,,,0.00,VWS V14.00,2013-01-06 10:43:00,
2013-01-06 05:48:00,34.1,31.2,29.95,WNW,284,0.0,4.0,89,0.00,,,0.00,VWS V14.00,2013-01-06 10:48:00,
2013-01-06 05:53:00,34.1,31.2,29.95,SE,127,0.0,4.0,89,0.00,,,0.00,VWS V14.00,2013-01-06 10:53:00,
2013-01-06 05:58:00,34.1,31.2,29.95,West,280,1.0,4.0,89,0.00,,,0.00,VWS V14.00,2013-01-06 10:58:00,
2013-01-06 06:03:00,34.1,31.2,29.95,SW,221,0.0,4.0,89,0.00,,,0.00,VWS V14.00,2013-01-06 11:03:00,
2013-01-06 06:08:00,34.1,31.2,29.95,West,273,0.0,4.0,89,0.00,,,0.00,VWS V14.00,2013-01-06 11:08:00,
2013-01-06 06:13:00,34.1,31.2,29.95,WNW,287,0.0,4.0,89,0.00,,,0.00,VWS V14.00,2013-01-06 11:13:00,
2013-01-06 06:18:00,34.1,31.2,29.95,West,263,3.0,6.0,89,0.00,,,0.00,VWS V14.00,2013-01-06 11:18:00,
2013-01-06 06:23:00,34.1,31.2,29.95,SW,235,0.0,6.0,89,0.00,,,0.00,VWS V14.00,2013-01-06 11:23:00,
2013-01-06 06:28:00,34.2,31.3,29.95,West,259,0.0,6.0,89,0.00,,,0.00,VWS V14.00,2013-01-06 11:28:00,
2013-01-06 06:33:00,34.2,31.3,29.95,WSW,246,0.0,8.0,89,0.00,,,0.00,VWS V14.00,2013-01-06 11:33:00,
2013-01-06 06:38:00,34.2,31.3,29.95,SW,221,0.0,3.0,89,0.00,,,0.00,VWS V14.00,2013-01-06 11:38:00,
2013-01-06 06:43:00,34.2,31.3,29.94,ESE,121,1.0,3.0,89,0.00,,,0.00,VWS V14.00,2013-01-06 11:43:00,
2013-01-06 06:48:00,34.1,31.2,29.94,West,273,0.0,3.0,89,0.00,,,0.00,VWS V14.00,2013-01-06 11:48:00,
2013-01-06 06:53:00,34.0,31.1,29.94,SW,218,0.0,3.0,89,0.00,,,0.00,VWS V14.00,2013-01-06 11:53:00,
2013-01-06 06:58:00,33.9,31.0,29.94,WSW,254,1.0,3.0,89,0.00,,,0.00,VWS V14.00,2013-01-06 11:58:00,
2013-01-06 07:03:00,33.9,31.0,29.94,SW,236,1.0,4.0,89,0.00,,,0.00,VWS V14.00,2013-01-06 12:03:00,
2013-01-06 07:08:00,33.8,30.9,29.95,SE,132,0.0,1.0,89,0.00,,,0.00,VWS V14.00,2013-01-06 12:08:00,
2013-01-06 07:13:00,33.7,30.8,29.95,WSW,258,0.0,2.0,89,0.00,,,0.00,VWS V14.00,2013-01-06 12:13:00,
2013-01-06 07:18:00,33.7,30.8,29.95,SW,225,0.0,2.0,89,0.00,,,0.00,VWS V14.00,2013-01-06 12:18:00,
2013-01-06 07:23:00,33.7,30.8,29.95,WNW,303,0.0,2.0,89,0.00,,,0.00,VWS V14.00,2013-01-06 12:23:00,
2013-01-06 07:28:00,33.7,30.8,29.95,NNE,31,0.0,2.0,89,0.00,,,0.00,VWS V14.00,2013-01-06 12:28:00,
2013-01-06 07:33:00,33.8,30.9,29.94,South,187,0.0,2.0,89,0.00,,,0.00,VWS V14.00,2013-01-06 12:33:00,
2013-01-06 07:38:00,33.8,30.9,29.95,SW,218,0.0,3.0,89,0.00,,,0.00,VWS V14.00,2013-01-06 12:38:00,
2013-01-06 07:43:00,33.9,31.0,29.95,West,278,3.0,3.0,89,0.00,,,0.00,VWS V14.00,2013-01-06 12:43:00,
2013-01-06 07:48:00,33.9,31.0,29.95,West,276,1.0,5.0,89,0.00,,,0.00,VWS V14.00,2013-01-06 12:48:00,
2013-01-06 07:53:00,33.9,31.0,29.95,West,262,0.0,5.0,89,0.00,,,0.00,VWS V14.00,2013-01-06 12:53:00,
2013-01-06 07:58:00,33.9,31.0,29.95,West,262,0.0,5.0,89,0.00,,,0.00,VWS V14.00,2013-01-06 12:58:00,
2013-01-06 08:03:00,33.9,31.3,29.95,West,270,2.0,5.0,90,0.00,,,0.00,VWS V14.00,2013-01-06 13:03:00,
2013-01-06 08:08:00,34.0,31.4,29.95,West,270,1.0,5.0,90,0.00,,,0.00,VWS V14.00,2013-01-06 13:08:00,
2013-01-06 08:13:00,34.0,31.4,29.95,West,271,2.0,5.0,90,0.00,,,0.00,VWS V14.00,2013-01-06 13:13:00,
2013-01-06 08:18:00,34.1,31.5,29.95,West,266,0.0,6.0,90,0.00,,,0.00,VWS V14.00,2013-01-06 13:18:00,
2013-01-06 08:23:00,34.1,31.5,29.95,WNW,291,1.0,6.0,90,0.00,,,0.00,VWS V14.00,2013-01-06 13:23:00,
2013-01-06 08:28:00,34.0,31.4,29.95,West,278,2.0,6.0,90,0.00,,,0.00,VWS V14.00,2013-01-06 13:28:00,
2013-01-06 08:33:00,34.1,31.5,29.95,West,278,1.0,8.0,90,0.00,,,0.00,VWS V14.00,2013-01-06 13:33:00,
2013-01-06 08:38:00,34.1,31.5,29.96,West,277,1.0,8.0,90,0.00,,,0.00,VWS V14.00,2013-01-06 13:38:00,
2013-01-06 08:43:00,34.1,31.5,29.96,West,271,2.0,8.0,90,0.00,,,0.00,VWS V14.00,2013-01-06 13:43:00,
2013-01-06 08:48:00,34.1,31.5,29.96,NW,318,0.0,8.0,90,0.00,,,0.00,VWS V14.00,2013-01-06 13:48:00,
2013-01-06 08:53:00,34.1,31.5,29.96,West,276,3.0,8.0,90,0.00,,,0.00,VWS V14.00,2013-01-06 13:53:00,
2013-01-06 08:58:00,34.1,31.5,29.96,West,279,2.0,8.0,90,0.00,,,0.00,VWS V14.00,2013-01-06 13:58:00,
2013-01-06 09:03:00,34.1,31.2,29.96,West,277,2.0,8.0,89,0.00,,,0.00,VWS V14.00,2013-01-06 14:03:00,
2013-01-06 09:08:00,34.1,31.2,29.96,SW,233,1.0,9.0,89,0.00,,,0.00,VWS V14.00,2013-01-06 14:08:00,
2013-01-06 09:13:00,34.1,31.2,29.96,West,281,2.0,9.0,89,0.00,,,0.00,VWS V14.00,2013-01-06 14:13:00,
2013-01-06 09:18:00,34.0,31.1,29.97,WNW,293,2.0,9.0,89,0.00,,,0.00,VWS V14.00,2013-01-06 14:18:00,
2013-01-06 09:23:00,34.0,31.1,29.97,West,273,2.0,9.0,89,0.00,,,0.00,VWS V14.00,2013-01-06 14:23:00,
2013-01-06 09:28:00,34.0,31.1,29.97,WNW,288,5.0,9.0,89,0.00,,,0.00,VWS V14.00,2013-01-06 14:28:00,
2013-01-06 09:33:00,33.8,30.6,29.97,WNW,298,4.0,14.0,88,0.01,,,0.01,VWS V14.00,2013-01-06 14:33:00,
2013-01-06 09:38:00,33.3,29.3,29.97,WNW,293,3.0,11.0,85,0.01,,,0.01,VWS V14.00,2013-01-06 14:38:00,
2013-01-06 09:43:00,32.9,28.9,29.98,North,356,6.0,11.0,85,0.01,,,0.01,VWS V14.00,2013-01-06 14:43:00,
2013-01-06 09:48:00,32.8,28.8,29.98,NNW,328,5.0,12.0,85,0.01,,,0.01,VWS V14.00,2013-01-06 14:48:00,
2013-01-06 09:53:00,32.5,28.2,29.99,NW,312,7.0,12.0,84,0.01,,,0.01,VWS V14.00,2013-01-06 14:53:00,
2013-01-06 09:58:00,31.8,26.9,29.99,NW,307,6.0,12.0,82,0.01,,,0.01,VWS V14.00,2013-01-06 14:58:00,
2013-01-06 10:03:00,31.3,26.5,29.99,WNW,301,3.0,12.0,82,0.01,,,0.01,VWS V14.00,2013-01-06 15:03:00,
2013-01-06 10:08:00,30.9,26.4,30.00,WNW,301,14.0,14.0,83,0.01,,,0.01,VWS V14.00,2013-01-06 15:08:00,
2013-01-06 10:13:00,30.5,26.0,30.00,WNW,291,4.0,14.0,83,0.01,,,0.01,VWS V14.00,2013-01-06 15:13:00,
2013-01-06 10:18:00,30.3,26.1,30.00,WNW,290,3.0,14.0,84,0.01,,,0.01,VWS V14.00,2013-01-06 15:18:00,
2013-01-06 10:23:00,30.6,26.4,30.00,WNW,290,3.0,14.0,84,0.01,,,0.01,VWS V14.00,2013-01-06 15:23:00,
2013-01-06 10:28:00,31.0,26.7,30.01,WNW,288,3.0,14.0,84,0.01,,,0.01,VWS V14.00,2013-01-06 15:28:00,
2013-01-06 10:33:00,31.0,26.5,30.01,West,280,5.0,14.0,83,0.01,,,0.01,VWS V14.00,2013-01-06 15:33:00,
2013-01-06 10:38:00,30.7,26.2,30.01,West,281,7.0,10.0,83,0.00,,,0.01,VWS V14.00,2013-01-06 15:38:00,
2013-01-06 10:43:00,30.4,26.1,30.01,West,273,5.0,10.0,84,0.00,,,0.01,VWS V14.00,2013-01-06 15:43:00,
2013-01-06 10:48:00,30.2,26.0,30.01,WNW,298,4.0,11.0,84,0.00,,,0.01,VWS V14.00,2013-01-06 15:48:00,
2013-01-06 10:53:00,29.9,25.7,30.01,WNW,297,3.0,11.0,84,0.00,,,0.01,VWS V14.00,2013-01-06 15:53:00,
2013-01-06 10:58:00,29.8,25.6,30.01,West,274,5.0,16.0,84,0.00,,,0.01,VWS V14.00,2013-01-06 15:58:00,
2013-01-06 11:03:00,29.6,25.4,30.02,West,278,3.0,16.0,84,0.00,,,0.01,VWS V14.00,2013-01-06 16:03:00,
2013-01-06 11:08:00,29.6,25.6,30.02,WNW,284,3.0,8.0,85,0.00,,,0.01,VWS V14.00,2013-01-06 16:08:00,
2013-01-06 11:13:00,29.6,25.6,30.02,WNW,290,3.0,8.0,85,0.00,,,0.01,VWS V14.00,2013-01-06 16:13:00,
2013-01-06 11:18:00,29.7,25.8,30.02,West,267,3.0,8.0,85,0.00,,,0.01,VWS V14.00,2013-01-06 16:18:00,
2013-01-06 11:23:00,29.6,25.6,30.02,West,262,3.0,8.0,85,0.00,,,0.01,VWS V14.00,2013-01-06 16:23:00,
2013-01-06 11:28:00,29.6,25.6,30.03,WNW,290,5.0,8.0,85,0.00,,,0.01,VWS V14.00,2013-01-06 16:28:00,
2013-01-06 11:33:00,29.6,25.6,30.03,WNW,294,2.0,8.0,85,0.00,,,0.01,VWS V14.00,2013-01-06 16:33:00,
2013-01-06 11:38:00,29.6,25.6,30.03,West,269,1.0,8.0,85,0.00,,,0.01,VWS V14.00,2013-01-06 16:38:00,
2013-01-06 11:43:00,29.5,25.6,30.03,WNW,288,1.0,8.0,85,0.00,,,0.01,VWS V14.00,2013-01-06 16:43:00,
2013-01-06 11:48:00,29.5,25.6,30.03,WNW,290,3.0,8.0,85,0.00,,,0.01,VWS V14.00,2013-01-06 16:48:00,
2013-01-06 11:53:00,29.5,25.6,30.03,WSW,253,3.0,8.0,85,0.00,,,0.01,VWS V14.00,2013-01-06 16:53:00,
2013-01-06 11:58:00,29.4,25.5,30.03,WNW,295,3.0,8.0,85,0.00,,,0.01,VWS V14.00,2013-01-06 16:58:00,
2013-01-06 12:03:00,29.3,25.4,30.03,West,270,2.0,8.0,85,0.00,,,0.01,VWS V14.00,2013-01-06 17:03:00,
2013-01-06 12:08:00,29.3,25.4,30.03,West,274,3.0,6.0,85,0.00,,,0.01,VWS V14.00,2013-01-06 17:08:00,
2013-01-06 12:13:00,29.2,25.3,30.03,WNW,288,3.0,6.0,85,0.00,,,0.01,VWS V14.00,2013-01-06 17:13:00,
2013-01-06 12:18:00,29.2,25.3,30.03,WNW,285,1.0,6.0,85,0.00,,,0.01,VWS V14.00,2013-01-06 17:18:00,
2013-01-06 12:23:00,29.3,25.4,30.03,WNW,283,2.0,6.0,85,0.00,,,0.01,VWS V14.00,2013-01-06 17:23:00,
2013-01-06 12:28:00,29.3,25.4,30.02,West,267,4.0,6.0,85,0.00,,,0.01,VWS V14.00,2013-01-06 17:28:00,
2013-01-06 12:33:00,29.3,25.4,30.03,WNW,285,3.0,7.0,85,0.00,,,0.01,VWS V14.00,2013-01-06 17:33:00,
2013-01-06 12:38:00,29.3,25.4,30.03,West,281,4.0,6.0,85,0.00,,,0.01,VWS V14.00,2013-01-06 17:38:00,
2013-01-06 12:43:00,29.2,25.3,30.03,WNW,301,4.0,11.0,85,0.00,,,0.01,VWS V14.00,2013-01-06 17:43:00,
2013-01-06 12:48:00,29.2,25.5,30.03,West,281,2.0,11.0,86,0.00,,,0.01,VWS V14.00,2013-01-06 17:48:00,
2013-01-06 12:53:00,29.2,25.3,30.03,West,270,2.0,11.0,85,0.00,,,0.01,VWS V14.00,2013-01-06 17:53:00,
2013-01-06 12:58:00,29.3,25.4,30.03,WNW,291,3.0,11.0,85,0.00,,,0.01,VWS V14.00,2013-01-06 17:58:00,
2013-01-06 13:03:00,29.3,25.6,30.03,West,280,3.0,11.0,86,0.00,,,0.01,VWS V14.00,2013-01-06 18:03:00,
2013-01-06 13:08:00,29.4,25.5,30.03,West,272,2.0,7.0,85,0.00,,,0.01,VWS V14.00,2013-01-06 18:08:00,
2013-01-06 13:13:00,29.4,25.5,30.03,West,270,2.0,7.0,85,0.00,,,0.01,VWS V14.00,2013-01-06 18:13:00,
2013-01-06 13:18:00,29.6,25.6,30.04,West,271,4.0,9.0,85,0.00,,,0.01,VWS V14.00,2013-01-06 18:18:00,
2013-01-06 13:23:00,29.7,25.8,30.04,West,280,2.0,9.0,85,0.00,,,0.01,VWS V14.00,2013-01-06 18:23:00,
2013-01-06 13:28:00,29.7,25.8,30.04,WNW,285,3.0,9.0,85,0.00,,,0.01,VWS V14.00,2013-01-06 18:28:00,
2013-01-06 13:33:00,29.8,25.6,30.04,WNW,293,5.0,9.0,84,0.00,,,0.01,VWS V14.00,2013-01-06 18:33:00,
2013-01-06 13:38:00,29.8,25.6,30.04,WNW,290,3.0,5.0,84,0.00,,,0.01,VWS V14.00,2013-01-06 18:38:00,
2013-01-06 13:43:00,29.9,25.7,30.04,WSW,256,2.0,6.0,84,0.00,,,0.01,VWS V14.00,2013-01-06 18:43:00,
2013-01-06 13:48:00,29.9,25.7,30.04,WNW,301,3.0,8.0,84,0.00,,,0.01,VWS V14.00,2013-01-06 18:48:00,
2013-01-06 13:53:00,30.0,25.8,30.04,WNW,298,3.0,8.0,84,0.00,,,0.01,VWS V14.00,2013-01-06 18:53:00,
2013-01-06 13:58:00,30.0,25.8,30.04,NW,309,5.0,8.0,84,0.00,,,0.01,VWS V14.00,2013-01-06 18:58:00,
2013-01-06 14:03:00,30.0,25.8,30.04,WNW,292,3.0,8.0,84,0.00,,,0.01,VWS V14.00,2013-01-06 19:03:00,
2013-01-06 14:08:00,30.0,26.0,30.05,West,278,3.0,7.0,85,0.00,,,0.01,VWS V14.00,2013-01-06 19:08:00,
2013-01-06 14:13:00,30.0,26.0,30.05,West,280,4.0,7.0,85,0.00,,,0.01,VWS V14.00,2013-01-06 19:13:00,
2013-01-06 14:18:00,30.1,26.1,30.05,WNW,293,4.0,9.0,85,0.00,,,0.01,VWS V14.00,2013-01-06 19:18:00,
2013-01-06 14:23:00,30.1,26.1,30.05,WNW,290,5.0,9.0,85,0.00,,,0.01,VWS V14.00,2013-01-06 19:23:00,
2013-01-06 14:28:00,30.2,26.5,30.06,WNW,301,4.0,9.0,86,0.00,,,0.01,VWS V14.00,2013-01-06 19:28:00,
2013-01-06 14:33:00,30.2,26.5,30.06,WNW,301,3.0,9.0,86,0.00,,,0.01,VWS V14.00,2013-01-06 19:33:00,
2013-01-06 14:38:00,30.3,26.6,30.06,WNW,292,4.0,7.0,86,0.00,,,0.01,VWS V14.00,2013-01-06 19:38:00,
2013-01-06 14:43:00,30.3,26.6,30.06,WNW,287,2.0,7.0,86,0.00,,,0.01,VWS V14.00,2013-01-06 19:43:00,
2013-01-06 14:48:00,30.3,26.6,30.07,West,262,3.0,7.0,86,0.00,,,0.01,VWS V14.00,2013-01-06 19:48:00,
2013-01-06 14:53:00,30.3,26.6,30.07,WNW,293,4.0,7.0,86,0.00,,,0.01,VWS V14.00,2013-01-06 19:53:00,
2013-01-06 14:58:00,30.3,26.9,30.07,WNW,290,3.0,7.0,87,0.00,,,0.01,VWS V14.00,2013-01-06 19:58:00,
2013-01-06 15:03:00,30.3,26.9,30.08,WNW,285,3.0,7.0,87,0.00,,,0.01,VWS V14.00,2013-01-06 20:03:00,
2013-01-06 15:08:00,30.4,27.0,30.08,NW,311,4.0,6.0,87,0.00,,,0.01,VWS V14.00,2013-01-06 20:08:00,
2013-01-06 15:11:00,30.4,27.0,30.08,WNW,295,4.0,8.0,87,0.00,,,0.01,VWS V14.00,2013-01-06 20:11:00,
2013-01-06 15:13:00,30.4,27.0,30.08,WNW,291,3.0,8.0,87,0.00,,,0.01,VWS V14.00,2013-01-06 20:13:00,
2013-01-06 15:18:00,30.5,27.4,30.08,WNW,297,3.0,8.0,88,0.00,,,0.01,VWS V14.00,2013-01-06 20:18:00,
2013-01-06 15:23:00,30.5,27.4,30.09,WNW,285,4.0,8.0,88,0.00,,,0.01,VWS V14.00,2013-01-06 20:23:00,
2013-01-06 15:28:00,30.6,27.5,30.09,WNW,282,4.0,8.0,88,0.00,,,0.01,VWS V14.00,2013-01-06 20:28:00,
2013-01-06 15:33:00,30.6,27.8,30.09,WNW,301,2.0,8.0,89,0.00,,,0.01,VWS V14.00,2013-01-06 20:33:00,
2013-01-06 15:38:00,30.6,27.8,30.10,WNW,291,2.0,6.0,89,0.00,,,0.01,VWS V14.00,2013-01-06 20:38:00,
2013-01-06 15:43:00,30.6,27.8,30.10,NW,306,3.0,6.0,89,0.00,,,0.01,VWS V14.00,2013-01-06 20:43:00,
2013-01-06 15:48:00,30.7,28.1,30.10,WNW,290,2.0,7.0,90,0.00,,,0.01,VWS V14.00,2013-01-06 20:48:00,
2013-01-06 15:53:00,30.8,28.2,30.11,WSW,255,4.0,7.0,90,0.00,,,0.01,VWS V14.00,2013-01-06 20:53:00,
2013-01-06 15:58:00,30.8,28.2,30.11,WNW,296,4.0,7.0,90,0.00,,,0.01,VWS V14.00,2013-01-06 20:58:00,
2013-01-06 16:00:00,30.9,28.3,30.11,West,266,4.0,7.0,90,0.00,,,0.01,VWS V14.00,2013-01-06 21:00:00,
2013-01-06 16:05:00,30.9,28.3,30.11,WNW,301,3.0,5.0,90,0.00,,,0.01,VWS V14.00,2013-01-06 21:05:00,
2013-01-06 16:10:00,31.0,28.4,30.11,WNW,288,3.0,5.0,90,0.00,,,0.01,VWS V14.00,2013-01-06 21:10:00,
2013-01-06 16:15:00,31.1,28.5,30.12,West,278,4.0,7.0,90,0.00,,,0.01,VWS V14.00,2013-01-06 21:15:00,
2013-01-06 16:20:00,31.1,28.8,30.12,WNW,290,3.0,7.0,91,0.00,,,0.01,VWS V14.00,2013-01-06 21:20:00,
2013-01-06 16:25:00,31.2,28.9,30.12,WNW,290,3.0,7.0,91,0.00,,,0.01,VWS V14.00,2013-01-06 21:25:00,
2013-01-06 16:30:00,31.3,29.0,30.12,NW,306,2.0,8.0,91,0.00,,,0.01,VWS V14.00,2013-01-06 21:30:00,
2013-01-06 16:35:00,31.4,29.1,30.13,West,275,3.0,4.0,91,0.00,,,0.01,VWS V14.00,2013-01-06 21:35:00,
2013-01-06 16:40:00,31.5,29.2,30.13,WNW,288,3.0,8.0,91,0.00,,,0.01,VWS V14.00,2013-01-06 21:40:00,
2013-01-06 16:45:00,31.6,29.3,30.13,WNW,283,4.0,8.0,91,0.00,,,0.01,VWS V14.00,2013-01-06 21:45:00,
2013-01-06 16:50:00,31.7,29.4,30.13,WNW,290,2.0,8.0,91,0.00,,,0.01,VWS V14.00,2013-01-06 21:50:00,
2013-01-06 16:55:00,31.8,29.5,30.14,WNW,295,3.0,8.0,91,0.00,,,0.01,VWS V14.00,2013-01-06 21:55:00,
2013-01-06 17:00:00,31.9,29.6,30.14,West,262,3.0,8.0,91,0.00,,,0.01,VWS V14.00,2013-01-06 22:00:00,
2013-01-06 17:05:00,32.0,29.7,30.14,WNW,284,2.0,5.0,91,0.00,,,0.01,VWS V14.00,2013-01-06 22:05:00,
2013-01-06 17:10:00,32.2,29.9,30.15,WNW,303,2.0,6.0,91,0.00,,,0.01,VWS V14.00,2013-01-06 22:10:00,
2013-01-06 17:15:00,32.3,30.0,30.15,WNW,287,3.0,6.0,91,0.00,,,0.01,VWS V14.00,2013-01-06 22:15:00,
2013-01-06 17:20:00,32.6,30.0,30.15,WNW,291,4.0,6.0,90,0.00,,,0.01,VWS V14.00,2013-01-06 22:20:00,
2013-01-06 17:25:00,32.8,30.2,30.16,WNW,294,3.0,6.0,90,0.00,,,0.01,VWS V14.00,2013-01-06 22:25:00,
2013-01-06 17:30:00,32.9,30.0,30.16,WNW,283,2.0,6.0,89,0.00,,,0.01,VWS V14.00,2013-01-06 22:30:00,
2013-01-06 17:35:00,33.0,30.1,30.16,NW,307,3.0,5.0,89,0.00,,,0.01,VWS V14.00,2013-01-06 22:35:00,
2013-01-06 17:40:00,33.1,29.9,30.17,WNW,303,3.0,6.0,88,0.00,,,0.01,VWS V14.00,2013-01-06 22:40:00,
2013-01-06 17:45:00,33.2,30.0,30.17,WNW,295,2.0,6.0,88,0.00,,,0.01,VWS V14.00,2013-01-06 22:45:00,
2013-01-06 17:50:00,33.2,30.0,30.17,West,259,4.0,7.0,88,0.00,,,0.01,VWS V14.00,2013-01-06 22:50:00,
2013-01-06 17:55:00,33.2,30.0,30.18,WNW,284,2.0,9.0,88,0.00,,,0.01,VWS V14.00,2013-01-06 22:55:00,
2013-01-06 18:00:00,33.1,30.2,30.18,NNW,331,4.0,9.0,89,0.00,,,0.01,VWS V14.00,2013-01-06 23:00:00,
2013-01-06 18:05:00,33.0,30.1,30.18,WNW,297,2.0,3.0,89,0.00,,,0.01,VWS V14.00,2013-01-06 23:05:00,
2013-01-06 18:10:00,32.9,30.3,30.19,WNW,298,2.0,6.0,90,0.00,,,0.01,VWS V14.00,2013-01-06 23:10:00,
2013-01-06 18:15:00,32.8,30.2,30.19,NW,307,2.0,6.0,90,0.00,,,0.01,VWS V14.00,2013-01-06 23:15:00,
2013-01-06 18:20:00,32.7,30.1,30.20,WNW,291,2.0,6.0,90,0.00,,,0.01,VWS V14.00,2013-01-06 23:20:00,
2013-01-06 18:25:00,32.6,30.0,30.20,NW,326,1.0,6.0,90,0.00,,,0.01,VWS V14.00,2013-01-06 23:25:00,
2013-01-06 18:30:00,32.5,29.9,30.20,WNW,301,4.0,6.0,90,0.00,,,0.01,VWS V14.00,2013-01-06 23:30:00,
2013-01-06 18:35:00,32.6,30.0,30.21,NW,316,2.0,4.0,90,0.00,,,0.01,VWS V14.00,2013-01-06 23:35:00,
2013-01-06 18:40:00,32.6,30.0,30.21,WNW,288,1.0,5.0,90,0.00,,,0.01,VWS V14.00,2013-01-06 23:40:00,
2013-01-06 18:45:00,32.7,29.8,30.21,NW,314,2.0,5.0,89,0.00,,,0.01,VWS V14.00,2013-01-06 23:45:00,
2013-01-06 18:50:00,32.7,29.8,30.22,West,280,1.0,5.0,89,0.00,,,0.01,VWS V14.00,2013-01-06 23:50:00,
2013-01-06 18:55:00,32.7,29.8,30.22,West,281,1.0,5.0,89,0.00,,,0.01,VWS V14.00,2013-01-06 23:55:00,
2013-01-06 19:00:00,32.7,29.8,30.23,WNW,290,1.0,5.0,89,0.00,,,0.01,VWS V14.00,2013-01-07 00:00:00,
2013-01-06 19:05:00,32.7,29.8,30.23,WNW,284,0.0,1.0,89,0.00,,,0.01,VWS V14.00,2013-01-07 00:05:00,
2013-01-06 19:10:00,32.7,29.8,30.23,West,261,2.0,3.0,89,0.00,,,0.01,VWS V14.00,2013-01-07 00:10:00,
2013-01-06 19:15:00,32.7,29.8,30.23,WNW,284,0.0,5.0,89,0.00,,,0.01,VWS V14.00,2013-01-07 00:15:00,
2013-01-06 19:20:00,32.7,29.8,30.23,West,271,1.0,5.0,89,0.00,,,0.01,VWS V14.00,2013-01-07 00:20:00,
2013-01-06 19:25:00,32.8,29.9,30.24,WNW,298,0.0,5.0,89,0.00,,,0.01,VWS V14.00,2013-01-07 00:25:00,
2013-01-06 19:30:00,32.8,29.9,30.24,WNW,298,1.0,5.0,89,0.00,,,0.01,VWS V14.00,2013-01-07 00:30:00,
2013-01-06 19:35:00,32.8,29.6,30.24,WNW,287,1.0,2.0,88,0.00,,,0.01,VWS V14.00,2013-01-07 00:35:00,
2013-01-06 19:40:00,32.9,29.7,30.25,West,275,3.0,3.0,88,0.00,,,0.01,VWS V14.00,2013-01-07 00:40:00,
2013-01-06 19:45:00,32.9,29.5,30.25,WNW,287,1.0,3.0,87,0.00,,,0.01,VWS V14.00,2013-01-07 00:45:00,
2013-01-06 19:50:00,32.9,29.5,30.25,WNW,292,1.0,4.0,87,0.00,,,0.01,VWS V14.00,2013-01-07 00:50:00,
2013-01-06 19:55:00,33.0,29.3,30.26,WNW,291,2.0,4.0,86,0.00,,,0.01,VWS V14.00,2013-01-07 00:55:00,
2013-01-06 20:00:00,33.1,29.1,30.26,WNW,288,1.0,4.0,85,0.00,,,0.01,VWS V14.00,2013-01-07 01:00:00,
2013-01-06 20:05:00,33.1,28.8,30.26,WNW,287,1.0,2.0,84,0.00,,,0.01,VWS V14.00,2013-01-07 01:05:00,
2013-01-06 20:10:00,33.2,28.9,30.27,NW,316,1.0,3.0,84,0.00,,,0.01,VWS V14.00,2013-01-07 01:10:00,
2013-01-06 20:15:00,33.2,28.6,30.27,NW,318,2.0,5.0,83,0.00,,,0.01,VWS V14.00,2013-01-07 01:15:00,
2013-01-06 20:20:00,33.3,28.4,30.27,NW,321,1.0,5.0,82,0.00,,,0.01,VWS V14.00,2013-01-07 01:20:00,
2013-01-06 20:25:00,33.3,28.1,30.27,NW,311,2.0,5.0,81,0.00,,,0.01,VWS V14.00,2013-01-07 01:25:00,
2013-01-06 20:30:00,33.4,28.2,30.27,WNW,283,1.0,5.0,81,0.00,,,0.01,VWS V14.00,2013-01-07 01:30:00,
2013-01-06 20:35:00,33.3,28.1,30.27,NW,321,1.0,3.0,81,0.00,,,0.01,VWS V14.00,2013-01-07 01:35:00,
2013-01-06 20:40:00,33.3,28.1,30.27,WNW,294,1.0,4.0,81,0.00,,,0.01,VWS V14.00,2013-01-07 01:40:00,
2013-01-06 20:45:00,33.2,28.0,30.28,WNW,288,1.0,4.0,81,0.00,,,0.01,VWS V14.00,2013-01-07 01:45:00,
2013-01-06 20:50:00,33.1,27.9,30.28,WNW,285,1.0,4.0,81,0.00,,,0.01,VWS V14.00,2013-01-07 01:50:00,
2013-01-06 20:55:00,33.1,27.9,30.28,WNW,288,1.0,5.0,81,0.00,,,0.01,VWS V14.00,2013-01-07 01:55:00,
2013-01-06 21:00:00,33.2,28.0,30.28,WNW,303,2.0,5.0,81,0.00,,,0.01,VWS V14.00,2013-01-07 02:00:00,
2013-01-06 21:05:00,33.2,28.0,30.28,WNW,301,1.0,2.0,81,0.00,,,0.01,VWS V14.00,2013-01-07 02:05:00,
2013-01-06 21:10:00,33.1,27.9,30.28,ENE,62,0.0,2.0,81,0.00,,,0.01,VWS V14.00,2013-01-07 02:10:00,
2013-01-06 21:15:00,33.0,27.8,30.29,WNW,288,1.0,4.0,81,0.00,,,0.01,VWS V14.00,2013-01-07 02:15:00,
2013-01-06 21:20:00,33.0,27.8,30.29,NW,323,1.0,4.0,81,0.00,,,0.01,VWS V14.00,2013-01-07 02:20:00,
2013-01-06 21:25:00,33.0,27.2,30.29,WNW,301,1.0,5.0,79,0.00,,,0.01,VWS V14.00,2013-01-07 02:25:00,
2013-01-06 21:30:00,33.0,27.2,30.29,WNW,293,1.0,5.0,79,0.00,,,0.01,VWS V14.00,2013-01-07 02:30:00,
2013-01-06 21:35:00,33.0,26.9,30.29,WNW,287,2.0,6.0,78,0.00,,,0.01,VWS V14.00,2013-01-07 02:35:00,
2013-01-06 21:40:00,33.1,27.0,30.29,North,6,4.0,6.0,78,0.00,,,0.01,VWS V14.00,2013-01-07 02:40:00,
2013-01-06 21:45:00,33.1,27.0,30.29,NW,314,2.0,6.0,78,0.00,,,0.01,VWS V14.00,2013-01-07 02:45:00,
2013-01-06 21:50:00,32.9,26.8,30.30,WNW,301,0.0,6.0,78,0.00,,,0.01,VWS V14.00,2013-01-07 02:50:00,
2013-01-06 21:55:00,32.9,26.8,30.30,WNW,294,0.0,6.0,78,0.00,,,0.01,VWS V14.00,2013-01-07 02:55:00,
2013-01-06 22:00:00,32.8,26.7,30.30,WNW,294,1.0,6.0,78,0.00,,,0.01,VWS V14.00,2013-01-07 03:00:00,
2013-01-06 22:05:00,32.8,26.7,30.30,West,266,2.0,3.0,78,0.00,,,0.01,VWS V14.00,2013-01-07 03:05:00,
2013-01-06 22:10:00,32.8,26.7,30.31,WNW,293,1.0,3.0,78,0.00,,,0.01,VWS V14.00,2013-01-07 03:10:00,
2013-01-06 22:15:00,32.8,27.0,30.31,West,274,0.0,3.0,79,0.00,,,0.01,VWS V14.00,2013-01-07 03:15:00,
2013-01-06 22:20:00,32.7,26.9,30.31,NW,317,1.0,5.0,79,0.00,,,0.01,VWS V14.00,2013-01-07 03:20:00,
2013-01-06 22:25:00,32.8,27.0,30.31,WNW,288,0.0,5.0,79,0.00,,,0.01,VWS V14.00,2013-01-07 03:25:00,
2013-01-06 22:30:00,32.8,27.0,30.31,WNW,287,1.0,5.0,79,0.00,,,0.01,VWS V14.00,2013-01-07 03:30:00,
2013-01-06 22:35:00,32.7,27.2,30.31,WNW,288,1.0,1.0,80,0.00,,,0.01,VWS V14.00,2013-01-07 03:35:00,
2013-01-06 22:40:00,32.7,27.2,30.31,West,272,1.0,2.0,80,0.00,,,0.01,VWS V14.00,2013-01-07 03:40:00,
2013-01-06 22:45:00,32.6,27.1,30.31,West,259,2.0,2.0,80,0.00,,,0.01,VWS V14.00,2013-01-07 03:45:00,
2013-01-06 22:50:00,32.5,27.3,30.31,West,269,1.0,3.0,81,0.00,,,0.01,VWS V14.00,2013-01-07 03:50:00,
2013-01-06 22:55:00,32.5,27.0,30.31,WNW,297,1.0,3.0,80,0.00,,,0.01,VWS V14.00,2013-01-07 03:55:00,
2013-01-06 23:00:00,32.5,27.0,30.32,West,274,0.0,3.0,80,0.00,,,0.01,VWS V14.00,2013-01-07 04:00:00,
2013-01-06 23:05:00,32.5,27.0,30.32,West,276,1.0,2.0,80,0.00,,,0.01,VWS V14.00,2013-01-07 04:05:00,
2013-01-06 23:10:00,32.4,27.2,30.32,West,270,1.0,2.0,81,0.00,,,0.01,VWS V14.00,2013-01-07 04:10:00,
2013-01-06 23:15:00,32.3,27.1,30.32,West,278,0.0,2.0,81,0.00,,,0.01,VWS V14.00,2013-01-07 04:15:00,
2013-01-06 23:20:00,32.2,27.0,30.32,West,276,0.0,2.0,81,0.00,,,0.01,VWS V14.00,2013-01-07 04:20:00,
2013-01-06 23:25:00,32.1,26.9,30.32,West,280,0.0,2.0,81,0.00,,,0.01,VWS V14.00,2013-01-07 04:25:00,
2013-01-06 23:30:00,32.1,26.9,30.32,West,278,0.0,2.0,81,0.00,,,0.01,VWS V14.00,2013-01-07 04:30:00,
2013-01-06 23:35:00,32.0,26.8,30.32,West,273,0.0,1.0,81,0.00,,,0.01,VWS V14.00,2013-01-07 04:35:00,
2013-01-06 23:40:00,32.0,26.8,30.32,West,260,0.0,1.0,81,0.00,,,0.01,VWS V14.00,2013-01-07 04:40:00,
2013-01-06 23:45:00,31.8,26.6,30.32,West,262,0.0,1.0,81,0.00,,,0.01,VWS V14.00,2013-01-07 04:45:00,
2013-01-06 23:50:00,31.7,26.5,30.32,West,260,0.0,1.0,81,0.00,,,0.01,VWS V14.00,2013-01-07 04:50:00,
2013-01-06 23:55:00,31.6,26.8,30.32,West,260,0.0,1.0,82,0.00,,,0.01,VWS V14.00,2013-01-07 04:55:00,